Regional Weather Roundup
Issued by NWS

Home | Current Version | Previous Version | Text Only | Print | Product List | Glossary Off
Versions: 1 2 3 4 5 6 7 8 9 10 11 12 13 14 15 16 17 18 19 20 21 22 23 24 25 26 27 28 29 30 31 32 33 34 35 36 37 38 39 40 41 42 43 44 45 46 47 48 49 50

000
ASUS43 KLOT 030103
RWRIL

ILLINOIS REGIONAL WEATHER ROUNDUP
NATIONAL WEATHER SERVICE CHICAGO/ROMEOVILLE IL
700 PM CST FRI DEC 02 2016

NOTE: "FAIR" INDICATES FEW OR NO CLOUDS BELOW 12,000 FEET WITH NO
SIGNIFICANT WEATHER AND/OR OBSTRUCTIONS TO VISIBILITY.

* THESE STATIONS ARE NOT UNDER NWS QUALITY CONTROL. THEY ALSO MAY NOT
  REPORT WEATHER SUCH AS PRECIPITATION OR FOG.

ILZ001-002-007-009-015-016-024-030200-
NORTHWEST ILLINOIS

CITY           SKY/WX    TMP DP  RH WIND       PRES   REMARKS
MOLINE         CLOUDY    37  25  61 NW8       30.31S WCI  31
STERLING*      CLOUDY    35  26  69 NW9       30.31S WCI  28
SAVANNA*       CLOUDY    35  25  67 NW9       30.30F WCI  27
$$

ILZ003-004-008-010-011-017-018-030200-
NORTH CENTRAL ILLINOIS

CITY           SKY/WX    TMP DP  RH WIND       PRES   REMARKS
ROCKFORD       CLOUDY    34  23  64 W8        30.31R WCI  27
FREEPORT*      CLOUDY    32  24  71 NW5       30.32R WCI  27
ROCHELLE*      CLOUDY    34  26  74 NW5       30.30R WCI  30
$$

ILZ005-006-012>014-019>023-030200-
NORTHEAST ILLINOIS

CITY           SKY/WX    TMP DP  RH WIND       PRES   REMARKS
CHICAGO-OHARE  CLOUDY    36  25  64 N8        30.28R WCI  30
CHICAGO-MIDWAY CLOUDY    38  25  59 W9        30.28R WCI  31
AURORA         CLOUDY    35  27  72 NW8       30.30R WCI  29
LANSING*       CLOUDY    37  30  75 W6        30.29R WCI  33
JOLIET*        CLOUDY    38  28  69 NW5       30.30R WCI  34
WAUKEGAN       CLOUDY    34  23  64 VRB3      30.27R
DUPAGE AIRPORT CLOUDY    35  25  66 W8        30.28R WCI  29
KANKAKEE*      CLOUDY    37  32  81 W5        30.30R WCI  34
WHEELING       CLOUDY    35  24  64 NW10      30.29R WCI  27
MORRIS*        CLOUDY    37  31  81 CALM      30.29R
ROMEOVILLE*    CLOUDY    36  29  78 NW9       30.29R WCI  29
NORTHERLY ISL    N/A     38  26  62 NW5         N/A  WCI  34
$$

LMZ740>746-030200-
SOUTHERN LAKE MICHIGAN

STATION/POSITION SKY/WX   TEMP    WIND        PRES    VSBY  WAVE
                          AIR SEA DIR/SP/G                  HT/PER
                          (F)     (DEG/KT/KT) (MB)    (MI)  (FT/S)
SOUTHERN BUOY              38 49  300/ 12/ 14 1024.2          3/ 5
HARRISON CRIB              39     340/ 12/ 14   N/A
BURNHAM HARBOR             38     290/  5/ 11   N/A
CALUMET HARBOR             38     300/  7/ 10 1024.2
BURNS HARBOR               40     300/ 12/ 16 1025.1R
MICHIGAN CITY              38     320/ 17/ 19   N/A
$$

ILZ025>027-034>036-040-047-049-050-058-095>099-030200-
WEST-CENTRAL ILLINOIS

CITY           SKY/WX    TMP DP  RH WIND       PRES   REMARKS
QUINCY         CLOUDY    39  31  72 CALM      30.32R
GALESBURG*     CLOUDY    36  29  75 CALM      30.31R
MACOMB*        CLOUDY    38  33  82 N3        30.34R
JACKSONVILLE*  CLOUDY    40  32  74 SW3       30.32R
PITTSFIELD*    PTCLDY    34  29  82 CALM      30.33R
$$

ILZ028>032-037-038-041>044-048-051>054-059>061-030200-
CENTRAL ILLINOIS

CITY           SKY/WX    TMP DP  RH WIND       PRES   REMARKS
PONTIAC        CLOUDY    39  34  82 NW5       30.31R
BLOOMINGTON    CLOUDY    39  30  70 NW5       30.30S
DECATUR        CLOUDY    41  32  70 W3        30.31S
PEORIA         CLOUDY    39  29  67 VRB5      30.32R
LACON*         CLOUDY    37  29  73 NW9       30.31R WCI  31
LINCOLN*       CLOUDY    41  34  76 CALM      30.31S
SPRINGFIELD    CLOUDY    41  36  82 W3        30.32R
TAYLORVILLE    CLOUDY    39  32  75 CALM      30.31F
$$

ILZ033-039-045-046-055>057-062-063-030200-
EAST-CENTRAL ILLINOIS

CITY           SKY/WX    TMP DP  RH WIND       PRES   REMARKS
CHAMPAIGN      CLOUDY    39  34  82 W6        30.31R WCI  35
RANTOUL*       CLOUDY    40  36  86 NW3       30.31R
MATTOON        CLOUDY    39  31  72 CALM      30.31R
PARIS*         CLOUDY    38  35  89 W5        30.32S WCI  34
$$

ILZ079-100>102-030200-
SOUTHWEST ILLINOIS

CITY           SKY/WX    TMP DP  RH WIND       PRES   REMARKS
BELLEVILLE     CLEAR     36  30  79 CALM      30.32R
CAHOKIA*       CLEAR     36  28  73 CALM      30.33R
SPARTA*        CLEAR     36  30  77 NE3       30.34R
$$

ILZ064>066-069>071-074>076-080>082-084>086-088>090-092>094-030200-
SOUTH-CENTRAL ILLINOIS

CITY           SKY/WX    TMP DP  RH WIND       PRES   REMARKS
CARBONDALE     CLEAR     37  30  75 CALM      30.33R
CAIRO*         CLEAR     38  30  74 CALM      30.32R
EFFINGHAM*     CLOUDY    37  33  86 CALM      30.34S
MARION         CLEAR     36  32  87 CALM      30.34R
SALEM*         CLOUDY    40  32  73 CALM      30.33S
METROPOLIS*    CLEAR     39  31  75 CALM      30.33R
$$

ILZ067-068-072-073-078-083-087-091-030200-
SOUTHEAST ILLINOIS

CITY           SKY/WX    TMP DP  RH WIND       PRES   REMARKS
LAWRENCEVILLE  CLOUDY    41  31  67 NW7       30.34R
FLORA*         MOCLDY    41  32  69 NW3       30.33F
FAIRFIELD*     MOCLDY    38  32  78 N3        30.32S
HARRISBURG*    CLEAR     39  31  73 CALM      30.33R
ROBINSON*      CLOUDY    38  33  81 W3        30.34S
CARMI*         CLEAR     34  32  91 CALM      30.33R
$$

ABBREVIATIONS USED IN REMARKS
   TC - TEMPERATURE IN CELSIUS
  WCI - WIND CHILL INDEX
   HX - HEAT INDEX
  VSB - VISIBILITY
$$




USA.gov is the U.S. government's official web portal to all federal, state and local government web resources and services.